Вернуться в каталог

COSMOS 1479

АктивенНавигацияLEO
NORAD 14177·PAYLOAD·🇷🇺 Russia

Запущен Jul 6, 1983 с Plesetsk Cosmodrome

Loading…

Ближайшие Пролёты (ближайшие 24 часа)

TLE

СвежийSource: Space-Track

Эпоха: Sep 14, 2026, 06:49 UTC

1 14177U 83069G   26257.28454301 -.00000010  00000-0  38784-4 0  9991
2 14177  74.0296   5.4402 0023026 149.1391 238.8333 12.46105268964808

Отслеживайте COSMOS 1479 в реальном времени с AllMySat

Download on the App Store